Погода в Пяндже

Погода в Пяндже : погода сейчас, прогноз погоды и архив. Всё, что Вы хотите узнать о погоде в Пяндже!

Поиск расширенной информации на нашем сайте:

Другие новости

Новости СМИ2

Главная страница сайта

Новости сайта

03.07.2017

Напоминаем, что на нашем специализированном сайте Метеоцентр.Азия вы можете получить высокодетализированные автоматические прогнозы погоды по пунктам России, СНГ и мира в авиационном формате (включающие направление и скорость ветра, видимость, явления погоды, количество и форму облачности, нижнюю и верхнюю границу облачности).


Погода в Пяндже - сегодня

Время (UTC), дата Ветер
(°,м/с) 
Видим.   Явления Облачность Т
(°С)
Тd
(°С)
f(%) Тe
(°С)
Pmin
(гПа)
dP
(гПа)
Po
(мм)
O2
(г/м3)
Тmin Tmax R s Состояние
почвы
18 16.10.17 150 (ЮВ) н/о    ясно 
+16.4 +10.2 67 +20  1014.3  0.6  729  275    +29       
21 16.10.17 080 (В) н/о    ясно 
+13.8 +8.4 70 +15  1015.4  0.6  729  277           
00 17.10.17 110 (В) н/о    ясно 
+11.7 +7.4 75 +13  1015.2  -0.5  729  280           
03 17.10.17 280 (З) 10 км    ясно 
+12.8 +7 68 +14  1016  730  279  +8.5         
06 17.10.17 230 (ЮЗ) 10 км    ясно 
+9.4 +9.4 100 +11  1012.5  -1.7  727  281  +8.5         
09 17.10.17 030 (СВ) 10 км    ясно 
+29 +6.7 24 +29  1007.4  -4.4  725  262           
12 17.10.17 320 (СЗ) 10 км    ясно 
+28 +11.8 37 +32  1006.8  -0.6  725  263           
15 17.10.17 190 (Ю) н/о    ясно 
+21 +11.9 56 +26  1007.5  -0.2  724  268    +30.7       
18 17.10.17 050 (СВ) н/о  мгла{туман}  ?/?  
+19.1 +10.4 57 +22  1009.3  1.4  726  271    +30.7       
00 18.10.17 130 (ЮВ) н/о  мгла  ?/?  
+13 +7 67 +14  1012.7  1.6  728  279           
03 18.10.17 070 (В) 0500 м  мгла{туман}  ?/?  
+13.5 +5.6 59 +14  1013.4  0.7  728  278  +12.7         
09 18.10.17 330 (СЗ) 2000 м  мгла  ?/?  
+17.2 +4.8 44 +18  1023.5  4.6  736  278           
12 18.10.17 180 (Ю) н/о  мгла  ?/?  
+16.2 +8.4 60 +18  1025  1.3  737  279           
15 18.10.17 140 (ЮВ) н/о  мгла  ?/?  
+15 +8.5 65 +16  1024.8  -0.3  736  279    +21.3       
18 18.10.17 080 (В) н/о  мгла  ?/?  
+13.8 +7.7 67 +15  1025  0.1  736  280    +17.9       
00 19.10.17 100 (В) н/о  мгла  ?/?  
+10.8 +6.1 73 +12  1025.2  0.4  736  284           
03 19.10.17 010 (С) 4000 м  мгла  4/0 верхняя 
[Ci fib]
+10.1 +5 71 +11  1024.7  -0.6  736  284  +8.1         
06 19.10.17 350 (С) 4000 м  мгла  ясно 
+17.6 +4.8 43 +19  1027.6  3.9  739  278  +8.1         
09 19.10.17 280 (З) 4000 м  мгла  ясно 
+19.8 +5.6 39 +21  1026.7  -0.6  738  276           
12 19.10.17 240 (ЮЗ) 2000 м  мгла  ясно 
+18.8 +7.8 49 +20  1026.5  -0.3  738  277           
15 19.10.17 190 (Ю) н/о  мгла  ясно 
+16.3 +8.9 62 +18  1026.5  -0.3  738  278    +20.3       
18 19.10.17 030 (СВ) н/о  мгла  ясно 
+14.2 +7.7 65 +15  1027.1  0.2  738  281    +20.3       
21 19.10.17 220 (ЮЗ) н/о  мгла  ясно 
+12.4 +7.4 72 +14  1027.1  -0.2  738  282           
03 20.10.17 300 (СЗ) 4000 м  мгла  ясно 
+10.7 +5 68 +12  1027.8  0.2  738  285  +8.6         
Время (UTC), дата Ветер
(°,м/с) 
Видим.   Явления Облачность Т
(°С)
Тd
(°С)
f(%) Тe
(°С)
Pmin
(гПа)
dP
(гПа)
Po
(мм)
O2
(г/м3)
Тmin Tmax R s Состояние
почвы

Для получения пояснительной информации подведите курсор к названию столбца.

ПОГОДА в Пяндже - архив

Всё, что Вы хотите узнать о погоде в Пяндже - удобно и подробно!

Выберите нужную дату (начиная с 1 января 2015* года) и нажмите кнопку "Найти".
Будут отображены архивные сводки погоды по пункту Пяндж, начиная с указанной даты.


Отображать данные в формате CSV (для использования в таблицах Excel)


Внимание! Наш архив погоды предназначен исключительно для личного некоммерческого использования в познавательных целях. Если Вам необходимы официальные справки о состоянии погоды (для производственных, юридических, коммерческих и т.п. целей), обращайтесь в органы Росгидромета.

*Примечание: данная дата относится к архиву по метеостанциям СССР (Россия, СНГ, Балтия).
Архив по метеостанциям Зарубежной Европы и Азии (кроме Китая) хранится 10 дней, по другим регионам земного шара (Китай, Африка, Америка, Австралия, Океания) - 1 день.

Пяндж - район местоположения метеостанции


Название, широта, долгота, высота метеостанции:
Пяндж 37.2°ш. 69.1°д. 363 м над ур. моря [Таджикистан]

Дополнительная информация

В oтличие oт бoльшинства пoгoдных сайтoв мы публикуем пoдрoбную метеoинфoрмацию в детальнoм прoфессиoнальнoм фoрмате.

Характеристики температуры и влажнoсти вoздуха измеряются на высoте 2 м в тени вдали oт зданий и деревьев.
Скoрoсть ветра измеряется на высoте 10 м (на урoвне рoста челoвека скoрoсть ветра ниже в 1.5-2 раза). Если метеoстанция нахoдится в гoрoде или в лесу, тo скoрoсть ветра занижена на 2-4 м/с пo сравнению с oткрытым местoм. Скoрoсть ветра над акватoриями крупных рек и oзёр, а также на вершинах хoлмoв на 2-5 м/с выше, чем в oбычных услoвиях.
Атмoсфернoе давление в разных тoчках местнoсти мoжет значительнo oтличаться oт давления на метеoстанции, в зависимoсти oт услoвий рельефа (при пoдъёме на 10 м давление пoнижается примернo на 1 мм рт.ст.).